Location: Kalwaria Zebrzydowska
(49.8686°N, 19.6647°E)
Time: 20:33:44
(UTC+01:00)

ISS - Pass Details

Date: 26 January 2019
Orbit: 403 x 411 km, 51.6° (Epoch: 22 February)

Event Time Altitude Azimuth Distance (km) Brightness Sun altitude
Rises 17:36:24 0° 225° (SW) 2,324 1.2 -11.4°
Reaches altitude 10° 17:38:34 10° 217° (SW) 1,469 -0.2 -11.8°
Maximum altitude 17:41:37 36° 149° (SSE) 673 -2.9 -12.2°
Enters shadow 17:43:19 21° 95° (E) 993 -2.4 -12.5°
